CW7625 Weather Reports


Display with metric or nautical units.
time (UTC)temp
F
wind
direction
speed
MPH
gust
MPH
rain 1hr
in
rain 24hr
in
rain mn
in
humidity
%
barometer
mb
20260904234106 96 239 0.0 7.0 0.00 0.00 0.00 47 1009.6
20260904233106 96 59 3.0 7.0 0.00 0.00 0.00 46 1009.6
20260904231106 97 94 1.0 4.0 0.00 0.00 0.00 46 1009.5
20260904230106 97 92 2.0 9.0 0.00 0.00 0.00 45 1009.6
20260904225106 97 54 9.0 9.0 0.00 0.00 0.00 45 1009.5
20260904223106 98 250 4.0 6.0 0.00 0.00 0.00 46 1009.8
20260904222106 98 337 4.0 11.0 0.00 0.00 0.00 46 1009.8
20260904221106 98 267 2.0 8.0 0.00 0.00 0.00 45 1009.8
20260904220106 98 100 1.0 7.0 0.00 0.00 0.00 45 1009.8
20260904215106 98 244 1.0 8.0 0.00 0.00 0.00 45 1009.9
20260904214106 99 117 3.0 8.0 0.00 0.00 0.00 45 1009.9
20260904213106 98 360 3.0 7.0 0.00 0.00 0.00 45 1010.1
20260904212106 98 164 2.0 7.0 0.00 0.00 0.00 45 1010.3
20260904211106 97 271 1.0 4.0 0.00 0.00 0.00 46 1010.4
20260904205106 98 103 4.0 6.0 0.00 0.00 0.00 47 1010.6
20260904204106 98 220 0.0 8.0 0.00 0.00 0.00 48 1010.6
20260904203106 99 83 3.0 11.0 0.00 0.00 0.00 47 1010.8
20260904202106 98 240 1.0 6.0 0.00 0.00 0.00 47 1010.9
20260904201106 97 214 5.0 8.0 0.00 0.00 0.00 48 1011.1
20260904200106 96 65 1.0 9.0 0.00 0.00 0.00 49 1011.2
20260904195106 97 59 2.0 9.0 0.00 0.00 0.00 49 1011.4
20260904193107 97 82 0.0 5.0 0.00 0.00 0.00 49 1011.6
20260904192106 97 279 2.0 9.0 0.00 0.00 0.00 51 1011.7
20260904190106 96 194 0.0 5.0 0.00 0.00 0.00 53 1011.8
20260904185106 95 126 2.0 5.0 0.00 0.00 0.00 53 1012.1
20260904184106 94 64 1.0 7.0 0.00 0.00 0.00 55 1012.2
20260904183106 94 78 5.0 7.0 0.00 0.00 0.00 55 1012.4
20260904182106 95 236 3.0 11.0 0.00 0.00 0.00 53 1012.6
20260904181106 95 263 3.0 9.0 0.00 0.00 0.00 54 1012.7
20260904180106 94 95 2.0 9.0 0.00 0.00 0.00 57 1012.8
20260904175106 94 232 2.0 8.0 0.00 0.00 0.00 56 1012.9
20260904174107 93 230 2.0 8.0 0.00 0.00 0.00 57 1012.9
20260904173106 94 219 2.0 11.0 0.00 0.00 0.00 57 1013.1
20260904172106 93 234 1.0 6.0 0.00 0.00 0.00 59 1013.3
20260904171106 93 238 1.0 7.0 0.00 0.00 0.00 59 1013.4
20260904170106 92 180 1.0 9.0 0.00 0.00 0.00 57 1013.4
20260904165106 92 67 4.0 8.0 0.00 0.00 0.00 59 1013.6
20260904164106 92 263 2.0 8.0 0.00 0.00 0.00 62 1013.7
20260904163106 92 196 3.0 9.0 0.00 0.00 0.00 63 1013.7
20260904162107 91 233 1.0 4.0 0.00 0.00 0.00 58 1013.8
20260904161106 90 51 1.0 5.0 0.00 0.00 0.00 60 1013.8
20260904160107 90 133 2.0 8.0 0.00 0.00 0.00 64 1013.8
20260904155106 89 285 3.0 6.0 0.00 0.00 0.00 67 1013.9
20260904154107 89 229 0.0 6.0 0.00 0.00 0.00 67 1013.9
20260904153107 88 161 1.0 5.0 0.00 0.00 0.00 69 1013.9
20260904151106 88 212 3.0 6.0 0.00 0.00 0.00 72 1013.9
20260904145107 87 182 2.0 7.0 0.00 0.00 0.00 74 1013.9
20260904144107 86 198 1.0 5.0 0.00 0.00 0.00 77 1013.9
20260904143106 86 232 1.0 6.0 0.00 0.00 0.00 75 1014.0
20260904142107 86 195 0.0 3.0 0.00 0.00 0.00 76 1013.9
20260904141106 85 225 0.0 3.0 0.00 0.00 0.00 76 1013.7
20260904140107 84 225 0.0 0.0 0.00 0.00 0.00 78 1013.7
20260904134107 82 225 0.0 0.0 0.00 0.00 0.00 83 1013.8
20260904133107 80 225 0.0 0.0 0.00 0.00 0.00 86 1013.7
20260904132107 78 225 0.0 0.0 0.00 0.00 0.00 89 1013.6
20260904131107 76 225 0.0 0.0 0.00 0.00 0.00 90 1013.5
20260904130107 75 225 0.0 0.0 0.00 0.00 0.00 91 1013.5
20260904125107 74 225 0.0 0.0 0.00 0.00 0.00 92 1013.4
20260904123106 71 225 0.0 0.0 0.00 0.00 0.00 92 1013.2
20260904122107 71 225 0.0 0.0 0.00 0.00 0.00 91 1013.1
20260904121107 71 225 0.0 0.0 0.00 0.00 0.00 92 1013.0
20260904120107 71 225 0.0 0.0 0.00 0.00 0.00 91 1012.8
20260904115107 71 225 0.0 0.0 0.00 0.00 0.00 91 1012.7
20260904114107 71 225 0.0 0.0 0.00 0.00 0.00 91 1012.7
20260904113107 71 225 0.0 0.0 0.00 0.00 0.00 91 1012.6
20260904112107 72 225 0.0 0.0 0.00 0.00 0.00 91 1012.6
20260904110107 72 225 0.0 0.0 0.00 0.00 0.00 91 1012.6
20260904105107 72 225 0.0 0.0 0.00 0.00 0.00 91 1012.4
20260904104107 72 225 0.0 0.0 0.00 0.00 0.00 91 1012.6
20260904103107 72 225 0.0 0.0 0.00 0.00 0.00 91 1012.5
20260904102107 73 225 0.0 0.0 0.00 0.00 0.00 91 1012.4
20260904101107 73 225 0.0 0.0 0.00 0.00 0.00 91 1012.4
20260904100107 73 225 0.0 0.0 0.00 0.00 0.00 90 1012.5
20260904095107 73 225 0.0 0.0 0.00 0.00 0.00 90 1012.4
20260904094107 73 225 0.0 0.0 0.00 0.00 0.00 90 1012.4
20260904093107 74 225 0.0 0.0 0.00 0.00 0.00 90 1012.1
20260904091107 74 225 0.0 0.0 0.00 0.00 0.00 90 1012.1
20260904090107 74 225 0.0 0.0 0.00 0.00 0.00 90 1012.0
20260904084107 74 225 0.0 0.0 0.00 0.00 0.00 90 1012.0
20260904083107 74 225 0.0 0.0 0.00 0.00 0.00 89 1011.8
20260904082107 75 225 0.0 0.0 0.00 0.00 0.00 89 1011.8
20260904081107 75 225 0.0 0.0 0.00 0.00 0.00 89 1011.6
20260904080107 75 225 0.0 0.0 0.00 0.00 0.00 89 1011.5
20260904075107 75 225 0.0 0.0 0.00 0.00 0.00 89 1011.5
20260904074107 75 225 0.0 0.0 0.00 0.00 0.00 88 1011.5
20260904073107 76 225 0.0 0.0 0.00 0.00 0.00 88 1011.4
20260904072107 76 225 0.0 0.0 0.00 0.00 0.00 88 1011.6
20260904071107 76 225 0.0 0.0 0.00 0.00 0.00 88 1011.5
20260904070107 76 225 0.0 0.0 0.00 0.00 0.00 87 1011.5
20260904065108 77 225 0.0 0.0 0.00 0.00 0.00 86 1011.6
20260904064107 77 225 0.0 0.0 0.00 0.00 0.00 86 1011.6
20260904061108 78 225 0.0 0.0 0.00 0.00 0.00 84 1011.6
20260904060107 79 225 0.0 0.0 0.00 0.00 0.00 84 1011.6
20260904055108 79 225 0.0 0.0 0.00 0.00 0.00 83 1011.6
20260904054107 80 225 0.0 0.0 0.00 0.00 0.00 82 1011.6
20260904053107 80 225 0.0 1.0 0.00 0.00 0.00 82 1011.5
20260904052107 81 225 0.0 0.0 0.00 0.00 0.00 80 1011.5
20260904051107 81 225 0.0 0.0 0.00 0.00 0.00 79 1011.4
20260904050108 82 225 0.0 0.0 0.00 0.00 0.00 79 1011.4
20260904042107 83 225 0.0 0.0 0.00 0.00 0.00 77 1011.4
20260904041108 83 225 0.0 0.0 0.00 0.00 0.00 77 1011.4
20260904040107 83 225 0.0 0.0 0.00 0.00 0.00 76 1011.4
20260904035108 83 225 0.0 0.0 0.00 0.00 0.00 75 1011.4
20260904033107 84 225 0.0 0.0 0.00 0.00 0.00 74 1011.3
20260904032107 84 225 0.0 0.0 0.00 0.00 0.00 73 1011.3
20260904031108 85 225 0.0 0.0 0.00 0.00 0.00 72 1011.3
20260904030108 86 225 0.0 0.0 0.00 0.00 0.00 71 1011.2
20260904024108 86 225 4.0 4.0 0.00 0.00 0.00 69 1011.2
20260904023107 87 225 1.0 4.0 0.00 0.00 0.00 69 1011.1
20260904021107 87 225 1.0 3.0 0.00 0.00 0.00 68 1010.9
20260904020108 88 276 1.0 3.0 0.00 0.00 0.00 67 1010.8
20260904013107 87 213 0.0 0.0 0.00 0.00 0.00 67 1010.2
20260904012107 88 213 0.0 1.0 0.00 0.00 0.00 65 1010.0
20260904010107 89 213 0.0 0.0 0.00 0.00 0.00 64 1009.7
20260904005108 90 213 0.0 0.0 0.00 0.00 0.00 63 1009.6
20260904004108 91 213 0.0 2.0 0.00 0.00 0.00 60 1009.4
20260904002107 92 111 3.0 6.0 0.00 0.00 0.00 58 1009.4
20260904001107 92 71 1.0 5.0 0.00 0.00 0.00 57 1009.4
20260904000108 93 88 1.0 7.0 0.00 0.00 0.00 56 1009.5
20260903235108 93 55 1.0 9.0 0.00 0.00 0.00 56 1009.4